This is the latest recevied weather packets stored in our database for station/object N5KJT. If no packets are shown the sender has not sent any weather packets the latest 10 day(s).
| Time | Temp. | Humidity | Pressure | Rain* | Wind** | Luminosity | Snow |
|---|---|---|---|---|---|---|---|
| 1787837116 | 13.33° C | 85% | 1029.6 hPa | 0 mm | - | 100 W/m² | - |
| 1787836816 | 13.33° C | 84% | 1029.5 hPa | 0 mm | - | 74 W/m² | - |
| 1787836516 | 12.78° C | 84% | 1029.4 hPa | 0 mm | - | 69 W/m² | - |
| 1787836216 | 12.78° C | 84% | 1029.3 hPa | 0 mm | - | 48 W/m² | - |
| 1787835916 | 12.78° C | 84% | 1029.4 hPa | 0 mm | - | 43 W/m² | - |
| 1787835616 | 12.78° C | 85% | 1029.4 hPa | 0 mm | - | 30 W/m² | - |
| 1787835316 | 12.78° C | 84% | 1029.4 hPa | 0 mm | - | 21 W/m² | - |
| 1787835016 | 12.78° C | 84% | 1029.3 hPa | 0 mm | - | 16 W/m² | - |
| 1787834716 | 12.22° C | 84% | 1029.2 hPa | 0 mm | - | 13 W/m² | - |
| 1787834416 | 12.22° C | 84% | 1029 hPa | 0 mm | - | 9 W/m² | - |
| 1787834115 | 12.22° C | 85% | 1028.9 hPa | 0 mm | - | 4 W/m² | - |
| 1787833816 | 12.22° C | 85% | 1028.8 hPa | 0 mm | - | 0 W/m² | - |
| 1787833516 | 12.22° C | 86% | 1028.7 hPa | 0 mm | - | 0 W/m² | - |
| 1787833215 | 12.22° C | 86% | 1028.8 hPa | 0 mm | - | 0 W/m² | - |
| 1787832916 | 12.22° C | 86% | 1028.7 hPa | 0 mm | - | 0 W/m² | - |
| 1787832616 | 12.22° C | 86% | 1028.7 hPa | 0 mm | - | 0 W/m² | - |
| 1787832315 | 12.22° C | 86% | 1028.8 hPa | 0 mm | - | 0 W/m² | - |
| 1787832016 | 12.22° C | 85% | 1028.7 hPa | 0 mm | - | 0 W/m² | - |
| 1787831716 | 12.22° C | 85% | 1028.6 hPa | 0 mm | - | 0 W/m² | - |
| 1787831416 | 12.22° C | 85% | 1028.6 hPa | 0 mm | - | 0 W/m² | - |
| 1787831115 | 12.78° C | 84% | 1028.5 hPa | 0 mm | - | 0 W/m² | - |
| 1787830815 | 12.78° C | 84% | 1028.3 hPa | 0 mm | - | 0 W/m² | - |
| 1787830515 | 12.78° C | 83% | 1028.3 hPa | 0 mm | - | 0 W/m² | - |
| 1787830215 | 13.33° C | 82% | 1028.4 hPa | 0 mm | - | 0 W/m² | - |
| 1787829915 | 13.33° C | 83% | 1028.4 hPa | 0 mm | - | 0 W/m² | - |
* Rain latest hour (hover to see other rain measurements)
** Current wind speed in m/s (hover to see current wind gust speed)